• In Russia
  • List of Countries
  • For 7 days
  • Water Temperature
  • Satellite Maps
  • Weather Map
  • Weather Widgets
  • user-avatar
    Login

    Hourly Weather Harare

    Today, 21 October, Sunday

    Time Temperature Precipitation Wind Pressure Humidity
    00:00 +19°C° 0.1 mm 4 mps 641 mmHg 75%
    01:00 +18°C° 0.1 mm 3 mps 641 mmHg 76%
    02:00 +18°C° 0.1 mm 3 mps 641 mmHg 78%
    03:00 +17°C° 0 mm 4 mps 641 mmHg 78%
    04:00 +17°C° 0 mm 4 mps 641 mmHg 79%
    05:00 +15°C° 0 mm 4 mps 641 mmHg 79%
    06:00 +17°C° 0 mm 4 mps 642 mmHg 73%
    07:00 +17°C° 0 mm 5 mps 643 mmHg 67%
    08:00 +19°C° 0 mm 5 mps 643 mmHg 61%
    09:00 +20°C° 0 mm 5 mps 644 mmHg 56%
    10:00 +22°C° 0 mm 5 mps 644 mmHg 50%
    11:00 +23°C° 0 mm 5 mps 644 mmHg 45%
    12:00 +25°C° 0 mm 4 mps 644 mmHg 42%
    13:00 +26°C° 0 mm 4 mps 643 mmHg 38%
    14:00 +27°C° 0 mm 4 mps 643 mmHg 35%
    15:00 +26°C° 0 mm 4 mps 643 mmHg 36%
    16:00 +25°C° 0 mm 4 mps 643 mmHg 37%
    17:00 +25°C° 0 mm 4 mps 643 mmHg 39%
    18:00 +22°C° 0 mm 4 mps 643 mmHg 44%
    19:00 +20°C° 0 mm 5 mps 643 mmHg 50%
    20:00 +17°C° 0 mm 5 mps 643 mmHg 55%
    21:00 +16°C° 0 mm 5 mps 643 mmHg 58%
    22:00 +16°C° 0 mm 5 mps 643 mmHg 60%
    23:00 +15°C° 0 mm 4 mps 643 mmHg 62%

    Tomorrow, 22 October, Monday

    Time Temperature Precipitation Wind Pressure Humidity
    00:00 +14°C° 0 mm 4 mps 643 mmHg 64%
    01:00 +14°C° 0 mm 4 mps 642 mmHg 66%
    02:00 +13°C° 0 mm 4 mps 642 mmHg 68%
    03:00 +13°C° 0 mm 4 mps 642 mmHg 70%
    04:00 +12°C° 0 mm 4 mps 642 mmHg 72%
    05:00 +12°C° 0 mm 3 mps 642 mmHg 74%
    06:00 +12°C° 0 mm 4 mps 642 mmHg 71%
    07:00 +13°C° 0 mm 4 mps 643 mmHg 68%
    08:00 +13°C° 0 mm 4 mps 644 mmHg 66%
    09:00 +15°C° 0 mm 4 mps 644 mmHg 57%
    10:00 +19°C° 0 mm 4 mps 644 mmHg 48%
    11:00 +21°C° 0 mm 4 mps 645 mmHg 39%
    12:00 +22°C° 0 mm 4 mps 644 mmHg 34%
    13:00 +25°C° 0 mm 4 mps 644 mmHg 30%
    14:00 +26°C° 0 mm 4 mps 643 mmHg 26%
    15:00 +25°C° 0 mm 4 mps 643 mmHg 25%
    16:00 +25°C° 0 mm 4 mps 643 mmHg 25%
    17:00 +23°C° 0 mm 4 mps 642 mmHg 24%
    18:00 +21°C° 0 mm 4 mps 643 mmHg 27%
    19:00 +19°C° 0 mm 3 mps 643 mmHg 30%
    20:00 +17°C° 0 mm 3 mps 643 mmHg 33%
    21:00 +16°C° 0 mm 3 mps 643 mmHg 36%
    22:00 +14°C° 0 mm 3 mps 643 mmHg 39%
    23:00 +13°C° 0 mm 3 mps 643 mmHg 42%

    Day after tomorrow, 23 October, Tuesday

    Time Temperature Precipitation Wind Pressure Humidity
    00:00 +13°C° 0 mm 3 mps 643 mmHg 46%
    01:00 +13°C° 0 mm 2 mps 642 mmHg 50%
    02:00 +12°C° 0 mm 2 mps 642 mmHg 54%
    03:00 +12°C° 0 mm 2 mps 642 mmHg 58%
    04:00 +10°C° 0 mm 2 mps 642 mmHg 62%
    05:00 +10°C° 0 mm 2 mps 641 mmHg 66%
    06:00 +12°C° 0 mm 2 mps 642 mmHg 60%
    07:00 +13°C° 0 mm 3 mps 643 mmHg 55%
    08:00 +16°C° 0 mm 3 mps 644 mmHg 49%
    09:00 +18°C° 0 mm 3 mps 645 mmHg 41%
    10:00 +20°C° 0 mm 4 mps 645 mmHg 33%
    11:00 +23°C° 0 mm 4 mps 645 mmHg 26%
    12:00 +25°C° 0 mm 4 mps 645 mmHg 24%
    13:00 +25°C° 0 mm 4 mps 644 mmHg 23%
    14:00 +26°C° 0 mm 4 mps 644 mmHg 21%
    15:00 +26°C° 0 mm 3 mps 643 mmHg 23%
    16:00 +25°C° 0 mm 3 mps 643 mmHg 25%
    17:00 +24°C° 0 mm 3 mps 642 mmHg 27%
    18:00 +21°C° 0 mm 3 mps 643 mmHg 33%
    19:00 +19°C° 0 mm 3 mps 643 mmHg 38%
    20:00 +18°C° 0 mm 3 mps 643 mmHg 44%
    21:00 +17°C° 0 mm 3 mps 643 mmHg 48%
    22:00 +16°C° 0 mm 2 mps 643 mmHg 52%
    23:00 +15°C° 0 mm 2 mps 643 mmHg 56%

    24 October, Wednesday

    Time Temperature Precipitation Wind Pressure Humidity
    00:00 +15°C° 0 mm 2 mps 642 mmHg 59%
    01:00 +14°C° 0 mm 2 mps 641 mmHg 62%
    02:00 +13°C° 0 mm 1 mps 641 mmHg 64%
    03:00 +13°C° 0 mm 1 mps 641 mmHg 67%
    04:00 +13°C° 0 mm 1 mps 641 mmHg 69%
    05:00 +12°C° 0 mm 1 mps 641 mmHg 72%
    06:00 +14°C° 0 mm 2 mps 641 mmHg 64%
    07:00 +16°C° 0 mm 2 mps 642 mmHg 57%
    08:00 +17°C° 0 mm 3 mps 643 mmHg 50%
    09:00 +20°C° 0 mm 3 mps 644 mmHg 42%
    10:00 +22°C° 0 mm 3 mps 644 mmHg 33%
    11:00 +25°C° 0 mm 3 mps 644 mmHg 25%
    12:00 +26°C° 0 mm 2 mps 644 mmHg 23%
    13:00 +27°C° 0 mm 2 mps 643 mmHg 20%
    14:00 +28°C° 0 mm 2 mps 643 mmHg 18%
    15:00 +27°C° 0 mm 2 mps 642 mmHg 20%
    16:00 +26°C° 0 mm 2 mps 642 mmHg 21%
    17:00 +25°C° 0 mm 2 mps 641 mmHg 22%
    18:00 +24°C° 0 mm 2 mps 641 mmHg 27%
    19:00 +21°C° 0 mm 2 mps 642 mmHg 31%
    20:00 +20°C° 0 mm 2 mps 642 mmHg 35%
    21:00 +19°C° 0 mm 2 mps 642 mmHg 40%
    22:00 +18°C° 0 mm 2 mps 641 mmHg 45%
    23:00 +17°C° 0 mm 2 mps 641 mmHg 49%

    25 October, Thursday

    Time Temperature Precipitation Wind Pressure Humidity
    00:00 +17°C° 0 mm 2 mps 641 mmHg 52%
    01:00 +16°C° 0 mm 2 mps 640 mmHg 55%
    02:00 +16°C° 0 mm 2 mps 640 mmHg 58%
    03:00 +15°C° 0 mm 1 mps 640 mmHg 61%
    04:00 +15°C° 0 mm 1 mps 640 mmHg 63%
    05:00 +14°C° 0 mm 1 mps 640 mmHg 66%
    06:00 +16°C° 0 mm 1 mps 640 mmHg 60%
    07:00 +19°C° 0 mm 1 mps 641 mmHg 54%
    08:00 +20°C° 0 mm 1 mps 642 mmHg 47%
    09:00 +23°C° 0 mm 2 mps 642 mmHg 40%
    10:00 +26°C° 0 mm 2 mps 643 mmHg 33%
    11:00 +28°C° 0 mm 2 mps 643 mmHg 25%
    12:00 +29°C° 0 mm 2 mps 643 mmHg 23%
    13:00 +30°C° 0 mm 2 mps 642 mmHg 21%
    14:00 +31°C° 0 mm 2 mps 642 mmHg 20%
    15:00 +30°C° 0 mm 2 mps 641 mmHg 21%
    16:00 +29°C° 0 mm 2 mps 641 mmHg 22%
    17:00 +28°C° 0 mm 2 mps 641 mmHg 23%
    18:00 +26°C° 0 mm 2 mps 641 mmHg 28%
    19:00 +24°C° 0 mm 2 mps 641 mmHg 32%
    20:00 +23°C° 0 mm 2 mps 641 mmHg 36%
    21:00 +21°C° 0 mm 2 mps 641 mmHg 37%
    22:00 +20°C° 0 mm 3 mps 641 mmHg 37%
    23:00 +19°C° 0 mm 3 mps 641 mmHg 38%

    26 October, Friday

    Time Temperature Precipitation Wind Pressure Humidity
    00:00 +18°C° 0 mm 2 mps 640 mmHg 39%
    01:00 +18°C° 0 mm 2 mps 640 mmHg 40%
    02:00 +17°C° 0 mm 2 mps 640 mmHg 41%
    03:00 +17°C° 0 mm 2 mps 640 mmHg 42%
    04:00 +16°C° 0 mm 1 mps 640 mmHg 43%
    05:00 +16°C° 0 mm 1 mps 640 mmHg 44%
    06:00 +18°C° 0 mm 2 mps 641 mmHg 40%
    07:00 +20°C° 0 mm 2 mps 642 mmHg 36%
    08:00 +23°C° 0 mm 2 mps 643 mmHg 32%
    09:00 +25°C° 0 mm 2 mps 643 mmHg 29%
    10:00 +26°C° 0 mm 2 mps 643 mmHg 25%
    11:00 +28°C° 0 mm 3 mps 643 mmHg 22%
    12:00 +29°C° 0 mm 2 mps 643 mmHg 20%
    13:00 +30°C° 0 mm 2 mps 642 mmHg 18%
    14:00 +30°C° 0 mm 2 mps 642 mmHg 16%
    15:00 +30°C° 0 mm 3 mps 642 mmHg 18%
    16:00 +29°C° 0 mm 3 mps 641 mmHg 19%
    17:00 +28°C° 0 mm 3 mps 641 mmHg 20%
    18:00 +26°C° 0 mm 3 mps 641 mmHg 23%
    19:00 +25°C° 0 mm 3 mps 641 mmHg 27%
    20:00 +22°C° 0 mm 3 mps 641 mmHg 30%
    21:00 +21°C° 0 mm 2 mps 641 mmHg 34%
    22:00 +20°C° 0 mm 2 mps 641 mmHg 38%
    23:00 +19°C° 0 mm 2 mps 642 mmHg 42%
    Show more